Regional Weather Roundup
Issued by NWS

Home | Current Version | Previous Version | Text Only | Print | Product List | Glossary Off
Versions: 1 2 3 4 5 6 7 8 9 10 11 12 13 14 15 16 17 18 19 20 21 22 23 24 25 26 27 28 29 30 31 32 33 34 35 36 37 38 39 40 41 42 43 44 45 46 47 48 49 50

000
ASUS43 KIND 201909
RWRIN

WEATHER ROUNDUP FOR INDIANA
NATIONAL WEATHER SERVICE INDIANAPOLIS IN
300 PM EDT SUN MAY 20 2018

NOTE: "FAIR" INDICATES FEW OR NO CLOUDS BELOW 12,000 FEET WITH NO
SIGNIFICANT WEATHER AND/OR OBSTRUCTIONS TO VISIBILITY.

* - STATION DOES NOT REPORT WEATHER SUCH AS PRECIPITATION OR FOG.

+ - STATION NOT QUALITY CONTROLLED BY THE NATIONAL WEATHER SERVICE.
    USE DATA WITH CAUTION...ESPECIALLY DEWPOINT AND RELATIVE
    HUMIDITY OBSERVATIONS.

INZ001>003-010>013-019-020-202000-
NORTHWEST INDIANA

CITY           SKY/WX    TMP DP  RH WIND       PRES   REMARKS
GARY /AIRPORT/ CLOUDY    54  50  87 N5        30.21R
KNOX *+        CLOUDY    54  52  94 NW13      30.19R
LA PORTE +     CLOUDY    53  51  93 N8        30.20R
MICHIGAN CITY+ CLOUDY    54  52  94 E7        30.17F
MONTICELLO +   CLOUDY    67  60  77 N14       30.14R
RENSSELAER +   DRIZZLE   52  46  82 N12       30.18S
VALPARAISO     CLOUDY    55  50  83 NE7       30.18F

$$

LMZ046-743>745-202000-
SOUTHERN LAKE MICHIGAN

STATION/POSITION TIME  TEMP    WIND        PRES    WAVE
                       AIR SEA DIR/SP/G            HT
                 (UTC) (F)     (DEG/KT/KT) (MB)    (FT)
BURNS HARBOR     1840   49     100/ 10/ 16 1021.7F
MICHIGAN CITY    1840   47      40/ 13/ 14   N/A
5NW MICH CITY    1900   48 53  110/ 12/ 16   N/A     4

$$

INZ004-005-014>016-021>024-202000-
NORTH CENTRAL INDIANA

CITY           SKY/WX    TMP DP  RH WIND       PRES   REMARKS
ELKHART        CLOUDY    63  59  88 N6        30.18S
GOSHEN           N/A     64  59  83 N12       30.16S
LOGANSPORT +   CLOUDY    70  59  68 NW6       30.15R
PERU/GRISSOM   PTSUNNY   72  66  82 W5        30.13R
ROCHESTER +    FAIR      70  61  73 N7        30.16R
SOUTH BEND     CLOUDY    57  55  93 N8        30.19F
WARSAW +       PTSUNNY   68  59  73 NE8       30.14F

$$

INZ006>009-017-018-025>027-202000-
NORTHEAST INDIANA

CITY           SKY/WX    TMP DP  RH WIND       PRES   REMARKS
ANGOLA *+      LGT RAIN  61  59  94 NE6       30.16S
AUBURN +       PTSUNNY   68  61  77 E8        30.16F
FORT WAYNE     CLOUDY    72  62  71 E10       30.13F
HUNTINGTON +   FAIR      70  61  74 E7        30.12F
KENDALLVILLE + CLOUDY    64  57  77 NE6       30.16F

$$

INZ028-029-035-036-043>045-051>053-202000-
WEST CENTRAL INDIANA

CITY           SKY/WX    TMP DP  RH WIND       PRES   REMARKS
CRAWFORDSVL +  FAIR      77  66  68 NW7       30.11R
GREENCASTLE +  FAIR      82  59  44 CALM      30.09S
LAFAYETTE      PTSUNNY   72  64  76 N9        30.12R
TERRE HAUTE    FAIR      84  62  47 SW7       30.09R

$$

INZ030>032-037>040-046>048-054>057-064-065-202000-
CENTRAL INDIANA

CITY           SKY/WX    TMP DP  RH WIND       PRES   REMARKS
COLUMBUS       SUNNY     82  57  42 SW5       30.08F
FISHERS *+     FAIR      81  68  65 S3        30.09
FRANKFORT +    FAIR      79  67  65 N3        30.13R
GREENWOOD *+   FAIR      81  65  58 SW5       30.09S
INDIANAPOLIS   FAIR      83  64  52 SW7       30.07F
-EAGLE CREEK   FAIR      83  65  54 W5        30.07F
KOKOMO +       PTSUNNY   72  63  73 N5        30.15R
MARION +       FAIR      71  63  76 CALM      30.13R
MT COMFORT *+  FAIR      81  68  65 CALM      30.09S
SHELBYVILLE    FAIR      81  65  58 S5        30.08F
ZIONSVILLE +     N/A     78  66  66 NW5       30.10F

$$

INZ033-034-041-042-049-050-058-059-202000-
EAST CENTRAL INDIANA

CITY           SKY/WX    TMP DP  RH WIND       PRES   REMARKS
MUNCIE         FAIR      78  65  63 NE8       30.10F
RICHMOND +     PTSUNNY   77  66  69 CALM      30.12S HAZE

$$

INZ060-061-067>069-081>083-085>088-202000-
SOUTHWEST INDIANA

CITY           SKY/WX    TMP DP  RH WIND       PRES   REMARKS
EVANSVILLE     FAIR      84  66  54 SW7       30.08F
HUNTINGBURG +  FAIR      87  65  47 S6        30.08F
WASHINGTON +   FAIR      84  61  44 SW7       30.07F

$$

INZ062-063-066-070>080-084-089>092-202000-
SOUTH CENTRAL AND SOUTHEAST INDIANA

CITY           SKY/WX    TMP DP  RH WIND       PRES   REMARKS
BATESVILLE +   SUNNY     81  64  57 VRB5      30.10F
BEDFORD +      FAIR      84  61  45 SW3       30.08F
BLOOMINGTON    FAIR      84  63  49 S7        30.07F
FRENCH LICK *+ FAIR      82  55  39 S5        30.10S
MADISON *+     FAIR      84  59  42 NW5       30.12S
NORTH VERNON + FAIR      82  63  51 CALM      30.09F
SEYMOUR +      FAIR      86  61  42 CALM      30.08

$$




USA.gov is the U.S. government's official web portal to all federal, state and local government web resources and services.